Weather in Tarsk

Russia / Tomsk District     58°17′41″N   80°35′30″E
temp.,
°C
wind,
m/s
gust,
m/s
humid.,
%
clouds,
%
prec.,
mm/h
press.,
hPa
HPBL,
m
15 may, sat
sat1501:00+11sw5175936 0.1 1016514
04:00+12wsw41470100 0.2 1015515
07:00+12wsw3128384 1.0 1015443
10:00+18w476375 0.1 1014578
13:00+20w3758100 0.1 10131125
16:00+24wnw5104690 0.0 10122033
19:00+15ne467897 1.9 1015510
22:00+10e259245 0.0 1016153
16 may, sun
sun1601:00+8ese2697100 0.0 1015162
04:00+8se2698100 0.1 1013160
07:00+10e1198100 2.9 101170
10:00+10ne2496100 0.8 1011254
13:00+10ene2292100 0.8 1012376
16:00+11ne3389100 0.2 1013479
19:00+10ne3688100 0.4 1013481
22:00+8nne269096 0.0 1016368
17 may, mon
mon1701:00+7nne1392100 0.0 1017153
04:00+7nnw1292100 0.0 1017100
07:00+7nnw018886 0.0 1018143
10:00+12wnw127055 0.0 1018755
13:00+17wsw2351100 0.0 10161361
16:00+14sw3770100 0.0 1014553
19:00+12ese3792100 1.9 1008242
22:00+11e489797 10.6 1009259
18 may, tue
tue1801:00+10n1199100 11.7 100733
04:00+10n2599100 0.0 1007246
07:00+10n1598100 0.0 1008252
10:00+11n2493100 0.0 1009457
13:00+10n2391100 0.1 1010555
16:00+10nne3389100 0.1 1010579
19:00+8ene3590100 0.1 1011426
22:00+8ne2793100 0.0 1011359
19 may, wed
wed1901:00+7nne269395 0.0 1011280
04:00+6n279795 0.0 1010204
07:00+6n3884100 0.0 1011248
10:00+9nne4761100 0.0 1012617
13:00+12nne5740100 0.0 10131967
16:00+12nne573197 0.0 10142485
19:00+12n4638100 0.0 10142433
22:00+7nne275316 0.0 1016171